Date String (YYYY-MM-DD hh:mm:ss) UTC,Instrument flags,absolute air pressure of the measurement (hPa),sample flow rate (lpm),inlet stack bypass flow (lpm),air temperature of the measurement (°C),ambient temperature measured by the external sensor (°C),aerosol sample conditioner tube jacket temperature (°C),OPC LED temperature (°C),internal box temperature (°C),relative humidity of the measurement (%),span deviation,mass concentration of particles derived from Lorenz-Mie calculation of OPC scattering (μg/m³),mass concentration of particles derived from Lorenz-Mie calculation of OPC scattering (μg/m³),mass concentration of particles derived from Lorenz-Mie calculation of OPC scattering (μg/m³)
DateTimeUTC,F1_M11,P_M11,Q1_M11,Q2_M11,T1_M11,T2_M11,T3_M11,T4_M11,T5_M11,U1_M11,ZSPAN_M11,X0_M11,X2_M11,X1_M11
2024-04-10 15:00:00,SystemResetWarning,0830.2,5.00,000.00,024.4,023.9,000.0,032.8,026.3,011.0,0000.0,0007.19,0002.13,0000.89
2024-04-10 15:01:00,SystemResetWarning,0830.2,4.99,000.00,024.4,023.9,000.0,032.8,026.3,011.2,0000.0,0007.09,0002.10,0000.87
2024-04-10 15:02:00,SystemResetWarning,0830.2,5.02,000.00,024.4,023.9,000.0,032.8,026.3,011.7,0000.0,0006.95,0002.09,0000.88
2024-04-10 15:03:00,SystemResetWarning,0830.3,5.01,000.00,024.4,023.9,000.0,032.8,026.3,011.8,0000.0,0007.30,0002.09,0000.88
2024-04-10 15:04:00,SystemResetWarning,0830.3,4.99,000.00,024.5,023.9,000.0,032.8,026.3,011.8,0000.0,0007.54,0002.11,0000.88
2024-04-10 15:05:00,SystemResetWarning,0830.2,5.00,000.00,024.5,023.9,000.0,032.8,026.3,011.8,0000.0,0007.50,0002.17,0000.88
2024-04-10 15:06:00,SystemResetWarning,0830.2,5.00,000.00,024.5,024.0,000.0,032.8,026.3,012.0,0000.0,0007.69,0002.21,0000.89
2024-04-10 15:07:00,SystemResetWarning,0830.2,5.00,000.00,024.5,024.0,000.0,032.8,026.3,011.7,0000.0,0007.67,0002.16,0000.87
2024-04-10 15:08:00,SystemResetWarning,0830.2,5.00,000.00,024.5,024.0,000.0,032.8,026.3,011.7,0000.0,0007.65,0002.14,0000.87
2024-04-10 15:09:00,SystemResetWarning,0830.3,5.00,000.00,024.5,024.0,000.0,032.9,026.4,012.0,0000.0,0006.67,0002.14,0000.87
2024-04-10 15:10:00,SystemResetWarning,0830.2,5.00,000.00,024.5,024.0,000.0,032.9,026.4,012.2,0000.0,0006.54,0002.11,0000.86
2024-04-10 15:11:00,SystemResetWarning,0830.3,5.00,000.00,024.6,024.0,000.0,032.9,026.4,012.4,0000.0,0007.54,0002.08,0000.87
2024-04-10 15:12:00,SystemResetWarning,0830.2,5.01,000.00,024.6,024.1,000.0,032.9,026.4,011.7,0000.0,0007.78,0002.06,0000.87
2024-04-10 15:13:00,SystemResetWarning,0830.2,5.01,000.00,024.6,024.1,000.0,032.9,026.4,011.7,0000.0,0007.73,0002.03,0000.87
2024-04-10 15:14:00,SystemResetWarning,0830.2,5.01,000.00,024.6,024.1,000.0,032.9,026.4,011.7,0000.0,0008.11,0002.06,0000.86
2024-04-10 15:15:00,SystemResetWarning,0830.2,5.00,000.00,024.6,024.1,000.0,032.9,026.4,011.5,0000.0,0008.10,0002.04,0000.85
2024-04-10 15:16:00,SystemResetWarning,0830.2,5.01,000.00,024.6,024.1,000.0,032.9,026.5,011.6,0000.0,0007.99,0001.93,0000.84
2024-04-10 15:17:00,SystemResetWarning,0830.2,5.00,000.00,024.6,024.1,000.0,033.0,026.5,011.8,0000.0,0007.53,0001.89,0000.83
2024-04-10 15:18:00,SystemResetWarning,0830.3,5.00,000.00,024.6,024.1,000.0,033.0,026.5,011.6,0000.0,0007.36,0001.87,0000.84
2024-04-10 15:19:00,SystemResetWarning,0830.3,4.99,000.00,024.7,024.1,000.0,033.0,026.5,011.4,0000.0,0007.40,0001.91,0000.84
2024-04-10 15:20:00,SystemResetWarning,0830.3,4.99,000.00,024.7,024.2,000.0,033.0,026.5,011.2,0000.0,0007.65,0002.01,0000.85
2024-04-10 15:21:00,SystemResetWarning,0830.3,4.99,000.00,024.7,024.2,000.0,033.0,026.5,010.9,0000.0,0007.70,0002.01,0000.84
2024-04-10 15:22:00,SystemResetWarning,0830.3,5.00,000.00,024.7,024.2,000.0,033.0,026.5,010.7,0000.0,0006.97,0002.05,0000.83
2024-04-10 15:23:00,SystemResetWarning,0830.3,5.01,000.00,024.7,024.2,000.0,033.0,026.5,010.7,0000.0,0006.62,0002.15,0000.83
2024-04-10 15:24:00,SystemResetWarning,0830.2,5.01,000.00,024.7,024.2,000.0,033.0,026.6,011.1,0000.0,0007.04,0002.31,0000.84
2024-04-10 15:25:00,SystemResetWarning,0830.3,5.00,000.00,024.7,024.2,000.0,033.1,026.6,010.9,0000.0,0006.47,0002.34,0000.84
2024-04-10 15:26:00,SystemResetWarning,0830.3,5.00,000.00,024.7,024.2,000.0,033.1,026.6,010.9,0000.0,0005.92,0002.38,0000.87
2024-04-10 15:27:00,SystemResetWarning,0830.3,5.00,000.00,024.8,024.3,000.0,033.1,026.6,011.3,0000.0,0005.89,0002.41,0000.88
2024-04-10 15:28:00,SystemResetWarning,0830.3,5.00,000.00,024.8,024.3,000.0,033.1,026.6,010.7,0000.0,0006.09,0002.43,0000.89
2024-04-10 15:29:00,SystemResetWarning,0830.3,5.00,000.00,024.8,024.3,000.0,033.1,026.6,010.8,0000.0,0006.13,0002.43,0000.90
2024-04-10 15:30:00,SystemResetWarning,0830.3,5.00,000.00,024.8,024.3,000.0,033.1,026.6,010.6,0000.0,0006.15,0002.45,0000.90
2024-04-10 15:31:00,SystemResetWarning,0830.3,5.00,000.00,024.8,024.3,000.0,033.1,026.7,010.7,0000.0,0005.91,0002.38,0000.90
2024-04-10 15:32:00,SystemResetWarning,0830.3,5.00,000.00,024.8,024.3,000.0,033.1,026.7,010.5,0000.0,0006.01,0002.38,0000.92
2024-04-10 15:33:00,SystemResetWarning,0830.3,5.00,000.00,024.8,024.3,000.0,033.1,026.7,010.7,0000.0,0006.16,0002.41,0000.93
2024-04-10 15:34:00,SystemResetWarning,0830.3,5.01,000.00,024.9,024.4,000.0,033.2,026.7,010.8,0000.0,0005.95,0002.39,0000.92
2024-04-10 15:35:00,SystemResetWarning,0830.3,5.01,000.00,024.9,024.4,000.0,033.2,026.7,010.7,0000.0,0005.82,0002.37,0000.93
2024-04-10 15:36:00,SystemResetWarning,0830.3,4.99,000.00,024.9,024.4,000.0,033.2,026.7,011.0,0000.0,0005.72,0002.34,0000.93
2024-04-10 15:37:00,SystemResetWarning,0830.3,4.99,000.00,024.9,024.4,000.0,033.2,026.7,011.1,0000.0,0005.43,0002.28,0000.92
2024-04-10 15:38:00,SystemResetWarning,0830.3,5.02,000.00,024.9,024.4,000.0,033.2,026.7,011.2,0000.0,0005.54,0002.33,0000.92
2024-04-10 15:39:00,SystemResetWarning,0830.3,5.00,000.00,024.9,024.4,000.0,033.2,026.8,010.9,0000.0,0005.45,0002.34,0000.92
2024-04-10 15:40:00,SystemResetWarning,0830.3,5.00,000.00,024.9,024.4,000.0,033.2,026.8,011.1,0000.0,0005.38,0002.33,0000.92
2024-04-10 15:41:00,SystemResetWarning,0830.3,5.00,000.00,024.9,024.4,000.0,033.3,026.8,011.1,0000.0,0005.64,0002.37,0000.92
2024-04-10 15:42:00,SystemResetWarning,0830.3,4.99,000.00,025.0,024.5,000.0,033.3,026.8,011.2,0000.0,0005.68,0002.38,0000.92
2024-04-10 15:43:00,SystemResetWarning,0830.3,5.00,000.00,025.0,024.5,000.0,033.3,026.8,011.2,0000.0,0005.48,0002.43,0000.92
2024-04-10 15:44:00,SystemResetWarning,0830.4,5.01,000.00,025.0,024.5,000.0,033.3,026.8,010.8,0000.0,0005.89,0002.44,0000.92
2024-04-10 15:45:00,SystemResetWarning,0830.4,5.00,000.00,025.0,024.5,000.0,033.3,026.8,010.6,0000.0,0006.63,0002.47,0000.93
2024-04-10 15:46:00,SystemResetWarning,0830.3,5.01,000.00,025.0,024.5,000.0,033.3,026.8,010.9,0000.0,0007.70,0002.38,0000.91
2024-04-10 15:47:00,SystemResetWarning,0830.3,5.01,000.00,025.0,024.5,000.0,033.3,026.8,011.0,0000.0,0007.71,0002.33,0000.92
2024-04-10 15:48:00,SystemResetWarning,0830.4,5.00,000.00,025.0,024.5,000.0,033.3,026.8,010.8,0000.0,0007.72,0002.35,0000.92
2024-04-10 15:49:00,SystemResetWarning,0830.4,4.99,000.00,025.0,024.5,000.0,033.4,026.9,010.9,0000.0,0007.82,0002.34,0000.91
2024-04-10 15:50:00,SystemResetWarning,0830.4,4.99,000.00,025.1,024.5,000.0,033.4,026.9,012.3,0000.0,0008.07,0002.32,0000.91
2024-04-10 15:51:00,SystemResetWarning,0830.5,4.99,000.00,025.1,024.6,000.0,033.4,026.9,012.7,0000.0,0008.14,0002.36,0000.91
2024-04-10 15:52:00,SystemResetWarning,0830.4,5.00,000.00,025.1,024.6,000.0,033.4,026.9,012.8,0000.0,0008.12,0002.42,0000.94
2024-04-10 15:53:00,SystemResetWarning,0830.4,5.01,000.00,025.1,024.6,000.0,033.4,026.9,012.6,0000.0,0008.37,0002.50,0000.99
2024-04-10 15:54:00,SystemResetWarning,0830.5,5.00,000.00,025.1,024.6,000.0,033.4,026.9,012.5,0000.0,0008.40,0002.51,0001.03
2024-04-10 15:55:00,SystemResetWarning,0830.4,5.00,000.00,025.1,024.6,000.0,033.4,026.9,012.7,0000.0,0008.09,0002.52,0001.08
2024-04-10 15:56:00,SystemResetWarning,0830.4,5.00,000.00,025.1,024.6,000.0,033.4,026.9,012.7,0000.0,0007.76,0002.49,0001.09
2024-04-10 15:57:00,SystemResetWarning,0830.5,5.00,000.00,025.1,024.6,000.0,033.4,026.9,013.1,0000.0,0006.75,0002.55,0001.13
2024-04-10 15:58:00,SystemResetWarning,0830.4,5.00,000.00,025.1,024.6,000.0,033.5,026.9,013.3,0000.0,0007.13,0002.69,0001.17
2024-04-10 15:59:00,SystemResetWarning,0830.5,5.00,000.00,025.1,024.6,000.0,033.5,026.9,013.3,0000.0,0007.63,0002.79,0001.19
